Location: St. Louis
(38.6270°N, 90.1994°W)
Time: 12:29:51
(UTC-06:00)

Altair - All Passes

Search period start: 30 November 2021 00:00
Search period end: 10 December 2021 00:00
Orbit: 1502 x 1682 km, 47.2° (Epoch: 29 November)

Date Brightness Start Highest point End Pass type
(mag) Time Alt. Az. Time Alt. Az. Time Alt. Az.
30 Nov - 01:43:45 10° WSW 01:46:15 11° WSW 01:48:47 10° SW night (unlit)
30 Nov - 14:48:50 10° SSW 14:57:34 40° SE 15:06:01 10° ENE daylight
30 Nov - 16:52:18 10° WSW 17:01:49 78° NNW 17:11:06 10° ENE visible
30 Nov - 18:58:30 10° WNW 19:07:30 50° N 19:16:22 10° ENE visible
30 Nov - 21:04:15 10° WNW 21:13:24 65° NNE 21:22:33 10° ESE visible
30 Nov - 23:09:11 10° WNW 23:18:03 56° SW 23:27:01 10° SSE night (unlit)
01 Dec - 01:17:23 10° W 01:21:14 13° WSW 01:25:06 10° SSW night (unlit)
01 Dec - 14:23:55 10° SSW 14:32:28 37° SE 14:40:45 10° ENE daylight
01 Dec - 16:27:04 10° WSW 16:36:38 82° NNW 16:45:55 10° ENE daylight
01 Dec - 18:33:10 10° W 18:42:13 51° N 18:51:07 10° ENE visible
01 Dec - 20:39:02 10° WNW 20:48:11 62° NNE 20:57:17 10° E visible
01 Dec - 22:43:58 10° WNW 22:52:56 60° SW 23:01:59 10° SE visible
02 Dec - 00:51:27 10° W 00:56:12 15° SW 01:01:00 10° SSW night (unlit)
02 Dec - 13:59:03 10° SSW 14:07:22 34° SE 14:15:26 10° ENE daylight
02 Dec - 16:01:50 10° WSW 16:11:26 87° NNW 16:20:45 10° ENE daylight
02 Dec - 18:07:51 10° W 18:16:57 52° N 18:25:52 10° ENE visible
02 Dec - 20:13:48 10° WNW 20:22:57 60° NNE 20:32:00 10° E visible
02 Dec - 22:18:47 10° WNW 22:27:49 65° SW 22:36:55 10° SE visible
03 Dec - 00:25:44 10° W 00:31:10 17° SW 00:36:40 10° SSW night (unlit)
03 Dec - 13:34:12 10° S 13:42:17 31° SE 13:50:07 10° ENE daylight
03 Dec - 15:36:36 10° SW 15:46:15 89° SSE 15:55:35 10° ENE daylight
03 Dec - 17:42:32 10° W 17:51:41 53° N 18:00:38 10° ENE visible
03 Dec - 19:48:35 10° WNW 19:57:43 58° NNE 20:06:43 10° E visible
03 Dec - 21:53:35 10° WNW 22:02:41 70° SW 22:11:50 10° SE visible
04 Dec - 00:00:07 10° W 00:06:08 20° SW 00:12:13 10° SSW night (unlit)
04 Dec - 13:09:24 10° S 13:17:12 28° SE 13:24:46 10° ENE daylight
04 Dec - 15:11:24 10° SW 15:21:04 84° SSE 15:30:24 10° ENE daylight
04 Dec - 17:17:12 10° W 17:26:25 54° N 17:35:24 10° ENE visible
04 Dec - 19:23:21 10° WNW 19:32:27 56° NNE 19:41:27 10° E visible
04 Dec - 21:28:23 10° WNW 21:37:33 75° SW 21:46:43 10° SE visible
04 Dec - 23:34:35 10° W 23:41:05 22° SW 23:47:39 10° S night (unlit)
05 Dec - 12:44:40 10° S 12:52:08 25° SE 12:59:23 10° ENE daylight
05 Dec - 14:46:14 10° SW 14:55:54 80° SE 15:05:14 10° ENE daylight
05 Dec - 16:51:52 10° W 17:01:09 55° NNW 17:10:11 10° ENE visible
05 Dec - 18:58:05 10° WNW 19:07:12 55° NNE 19:16:10 10° E visible
05 Dec - 21:03:11 10° WNW 21:12:24 80° SW 21:21:36 10° SE visible
05 Dec - 23:09:08 10° WNW 23:16:02 25° SW 23:23:01 10° S night (unlit)
06 Dec - 12:20:00 10° S 12:27:04 23° SE 12:33:56 10° E daylight
06 Dec - 14:21:04 10° SW 14:30:44 75° SE 14:40:03 10° ENE daylight
06 Dec - 16:26:32 10° W 16:35:53 57° NNW 16:44:58 10° ENE daylight
06 Dec - 18:32:50 10° WNW 18:41:56 53° N 18:50:53 10° E visible
06 Dec - 20:37:59 10° WNW 20:47:15 85° SW 20:56:27 10° SE visible
06 Dec - 22:43:43 10° WNW 22:50:59 27° SW 22:58:19 10° S visible
07 Dec - 11:55:23 10° S 12:01:59 21° SE 12:08:25 10° E daylight
07 Dec - 13:55:55 10° SW 14:05:34 70° SE 14:14:53 10° ENE daylight
07 Dec - 16:01:13 10° W 16:10:37 59° NNW 16:19:45 10° ENE daylight
07 Dec - 18:07:33 10° WNW 18:16:40 52° N 18:25:36 10° E visible
07 Dec - 20:12:48 10° WNW 20:22:06 89° SSW 20:31:17 10° ESE visible
07 Dec - 22:18:21 10° WNW 22:25:56 30° SW 22:33:33 10° S visible
08 Dec - 11:30:52 10° SSE 11:36:55 18° SE 11:42:50 10° E daylight
08 Dec - 13:30:47 10° SW 13:40:25 65° SE 13:49:41 10° ENE daylight
08 Dec - 15:35:53 10° W 15:45:22 61° NNW 15:54:33 10° ENE daylight
08 Dec - 17:42:16 10° WNW 17:51:24 52° N 18:00:19 10° E visible
08 Dec - 19:47:36 10° WNW 19:56:55 86° NNE 20:06:07 10° ESE visible
08 Dec - 21:53:01 10° WNW 22:00:52 33° SW 22:08:45 10° S visible
09 Dec - 11:06:28 10° SSE 11:11:51 16° SE 11:17:09 10° E daylight
09 Dec - 13:05:41 10° SW 13:15:16 61° SE 13:24:30 10° ENE daylight
09 Dec - 15:10:33 10° W 15:20:07 63° NNW 15:29:22 10° ENE daylight
09 Dec - 17:16:58 10° WNW 17:26:07 51° N 17:35:02 10° E visible
09 Dec - 19:22:24 10° WNW 19:31:44 82° NNE 19:40:56 10° ESE visible
09 Dec - 21:27:41 10° WNW 21:35:48 36° SW 21:43:55 10° SSE visible
